Location: Unspecified
(32.8157°N, 0.0000°E)
Time: 14:42:31
(UTC+00:00)

OTV 5 (USA 277) - Visible Passes

Search period start: 19 June 2019 00:00
Search period end: 29 June 2019 00:00
Orbit: 310 x 325 km, 54.5° (Epoch: 08 May)

Date Brightness Start Highest point End Pass type
(mag) Time Alt. Az. Time Alt. Az. Time Alt. Az.
20 Jun ? 21:42:46 17° NNW 21:42:46 17° NNW 21:43:59 10° N visible
21 Jun ? 04:04:03 10° N 04:05:21 13° NE 04:06:38 10° ENE visible
21 Jun ? 20:19:32 10° SSW 20:22:14 59° SE 20:24:57 10° NE visible
22 Jun ? 04:17:44 10° NNW 04:20:15 33° NE 04:22:45 10° ESE visible
22 Jun ? 20:34:26 10° WSW 20:36:58 33° NW 20:39:31 10° NNE visible
23 Jun ? 20:50:33 10° WNW 20:51:52 13° NW 20:53:12 10° N visible
24 Jun ? 03:13:15 10° N 03:15:22 20° NE 03:17:29 10° E visible
25 Jun ? 03:27:28 10° NW 03:30:12 67° NE 03:32:53 10° SE visible
25 Jun ? 19:44:50 10° W 19:46:57 20° NW 19:49:04 10° N visible
26 Jun ? 02:09:06 10° N 02:10:27 13° NE 02:11:47 10° ENE visible
26 Jun ? 03:42:25 10° WNW 03:44:50 28° SW 03:47:15 10° S visible
